Zurück zum Katalog

STARLINK-31162

AktivKommunikationVLEO
NORAD 58791·PAYLOAD·🇺🇸 United States

Gestartet Jan 15, 2024 von Cape Canaveral Space Force Station

Loading…

Nächste Überflüge (nächste 24 Stunden)

TLE

AktuellSource: CelesTrak SupGP

Epoche: Sep 15, 2026, 03:23 UTC

1 58791C 24012E   26258.14145833  .00003296  00000+0  11941-3 0  2587
2 58791  43.0024 175.1755 0001186 270.8400  31.4702 15.27572792    18

Verfolge STARLINK-31162 in Echtzeit mit AllMySat

Download on the App Store